Location: Beutels
(47.8767°N, 9.8584°E)
Time: 17:44:16
(UTC+00:00)

Cosmos 2082 Rocket - Pass Details

Date: 19 May 2025
Orbit: 832 x 853 km, 71.0° (Epoch: 16 June)

Event Time Altitude Azimuth Distance (km) Brightness Sun altitude
Exits shadow 21:41:57 26° 194° (SSW) 1,569 3.2 -18.9°
Maximum altitude 21:45:08 74° 114° (ESE) 869 2.1 -19.1°
Drops below altitude 10° 21:50:45 10° 31° (NNE) 2,457 5.1 -19.4°
Sets 21:53:12 0° 29° (NNE) 3,398 5.9 -19.6°
